Hourly Data Report for October 03, 2017

All times are specified in Local Standard Time (LST). Add 1 hour to adjust for Daylight Saving Time where and when it is observed.

DELINE CS
NORTHWEST TERRITORIES

65°12'31.090" N
123°26'00.070" W
212.80 m
2201022
71503
XDE

Download Data

Hourly Data (October 2017)
Hourly Data Report for October 3, 2017
Temp Definition
°C
Dew Point Temp Definition
°C
Rel Hum Definition
%
Wind Dir Definition
10's deg

Wind Spd Definition
km/h
Visibility Definition
km
Stn Press Definition
kPa
Hmdx Definition


Wind Chill Definition


Weather Definition


TIME
00:00 3.6 1.0 83 9 21   98.75     LegendNANA
01:00 3.5 0.6 82 8 15   98.79     LegendNANA
02:00 3.4 0.5 81 8 20   98.72     LegendNANA
03:00 2.9 0.9 87 8 9   98.75     LegendNANA
04:00 1.9 0.9 93 7 10   98.68     LegendNANA
05:00 1.6 0.7 94 7 9   98.74     LegendNANA
06:00 0.8 0.1 95 36 7   98.80     LegendNANA
07:00 0.6 0.0 96 31 9   98.87     LegendNANA
08:00 0.7 0.1 96 33 9   98.94     LegendNANA
09:00 1.0 0.3 95 31 7   99.01     LegendNANA
10:00 1.8 0.8 93 31 5   99.08     LegendNANA
11:00 3.4 0.9 84 1 2   99.15     LegendNANA
12:00 3.7 0.9 82 4 7   99.18     LegendNANA
13:00 3.9 0.6 79 10 6   99.22     LegendNANA
14:00 3.5 0.5 81 8 9   99.31     LegendNANA
15:00 3.7 0.5 80 9 9   99.36     LegendNANA
16:00 3.3 0.9 84 12 9   99.41     LegendNANA
17:00 2.9 0.1 82 10 9   99.47     LegendNANA
18:00 2.3 -0.4 82 8 11   99.47     LegendNANA
19:00 1.0 -0.8 88 7 11   99.46     LegendNANA
20:00 0.8 -0.9 88 7 12   99.48     LegendNANA
21:00 0.5 -1.2 88 9 10   99.48     LegendNANA
22:00 1.2 -0.8 87 9 10   99.46     LegendNANA
23:00 1.5 -0.7 85 9 9   99.49     LegendNANA

Notes on Data Quality.

Legend

  • E = Estimated
  • M = Missing
  • NA = Not Available
  • ‡ = Partner data that is not subject to review by the National Climate Archives
Date modified: